Location: Unspecified
(44.0704°N, 88.6889°W)
Time: 22:22:50
(UTC+02:00)

ISS - Pass Details

Date: 24 March 2019
Orbit: 408 x 410 km, 51.6° (Epoch: 23 April)

Event Time Altitude Azimuth Distance (km) Brightness Sun altitude
Rises 04:03:07 0° 276° (W) 2,333 0.9 -29.8°
Reaches altitude 10° 04:05:26 10° 290° (WNW) 1,472 -0.2 -30.1°
Enters shadow 04:06:01 13° 296° (WNW) 1,285 -0.5 -30.2°
